Weather History for Pecos, TX

Change the Weather History Date:

Tuesday, July 30, 2013

  Actual Average Record
Temperature  
Mean Temperature 83 °F -  
Max Temperature 100 °F 97 °F 112 °F (1960)
Min Temperature 67 °F 68 °F 62 °F (1914)
Cooling Degree Days 18    
Growing Degree Days 33 (Base 50)    
Moisture  
Dew Point 63 °F    
Average Humidity 56    
Maximum Humidity 88    
Minimum Humidity 28    
Precipitation  
Precipitation 0.00 in - - ()
Sea Level Pressure  
Sea Level Pressure 30.04 in    
Wind  
Wind Speed 5 mph (WNW)    
Max Wind Speed 24 mph    
Max Gust Speed 34 mph    
Visibility 10 miles    
Events Rain , Thunderstorm    
Averages and records for this station are not official NWS values.
T = Trace of Precipitation, MM = Missing Value Source: NWS Daily Summary

Daily Weather History Graph

Daily Weather History Graph

Search for Another Location

Airport:

Trip Planner

Search our weather history database for the weather conditions in past years. The results will help you decide how hot, cold, wet, or windy it might be!

Date:

Astronomy

Jul. 30, 2013 Rise Set
Actual Time 7:09 AM CDT 8:51 PM CDT
Civil Twilight 6:42 AM CDT 9:17 PM CDT
Nautical Twilight 6:11 AM CDT 9:49 PM CDT
Astronomical Twilight 5:37 AM CDT 10:22 PM CDT
Moon 1:25 AM CDT (7/30) 3:14 PM CDT (7/30)
Length of Visible Light 14h 34m
Length of Day
13h 41m
Last Quarter, 41% of the Moon is Illuminated
Jul 30
Last Quarter
Aug 6
New
Aug 14
First Quarter
Aug 20
Full
Aug 28
Last Quarter

Hourly Weather History & Observations

Time (CDT) Temp. Heat Index Dew Point Humidity Pressure Visibility Wind Dir Wind Speed Gust Speed Precip Events Conditions
12:15 AM 76.3 °F - 64.9 °F 68% 30.02 in 10.0 mi SSW 3.5 mph - N/A   Clear
12:35 AM 75.2 °F - 65.3 °F 71% 30.02 in 10.0 mi South 4.6 mph - N/A   Clear
12:55 AM 74.8 °F - 65.1 °F 72% 30.01 in 10.0 mi South 3.5 mph - N/A   Clear
1:15 AM 73.9 °F - 65.1 °F 74% 30.01 in 10.0 mi Calm Calm - N/A   Clear
1:35 AM 73.6 °F - 65.1 °F 75% 30.01 in 10.0 mi Calm Calm - N/A   Clear
1:55 AM 73.4 °F - 64.8 °F 74% 30.01 in 10.0 mi Calm Calm - N/A   Clear
2:15 AM 73.4 °F - 64.8 °F 74% 30.00 in 5.0 mi Calm Calm - N/A   Haze
2:35 AM 73.6 °F - 64.6 °F 73% 30.00 in 10.0 mi Calm Calm - N/A   Clear
2:55 AM 72.3 °F - 65.3 °F 78% 30.01 in 10.0 mi Calm Calm - N/A   Clear
3:15 AM 71.6 °F - 65.5 °F 81% 30.01 in 10.0 mi NNW 3.5 mph - N/A   Clear
3:35 AM 71.6 °F - 65.3 °F 80% 30.02 in 10.0 mi NNW 3.5 mph - N/A   Clear
3:55 AM 72.0 °F - 65.3 °F 79% 30.02 in 10.0 mi Calm Calm - N/A   Clear
4:15 AM 71.6 °F - 64.6 °F 78% 30.02 in 10.0 mi Calm Calm - N/A   Clear
4:35 AM 72.0 °F - 64.4 °F 77% 30.03 in 10.0 mi Calm Calm - N/A   Clear
4:55 AM 71.1 °F - 64.6 °F 80% 30.03 in 10.0 mi Calm Calm - N/A   Clear
5:15 AM 71.2 °F - 64.4 °F 79% 30.04 in 10.0 mi Calm Calm - N/A   Clear
5:35 AM 71.6 °F - 63.7 °F 76% 30.04 in 10.0 mi East 3.5 mph - N/A   Clear
5:55 AM 70.7 °F - 64.0 °F 79% 30.04 in 10.0 mi East 3.5 mph - N/A   Clear
6:15 AM 69.4 °F - 63.9 °F 82% 30.04 in 10.0 mi East 4.6 mph - N/A   Clear
6:35 AM 69.3 °F - 64.4 °F 84% 30.05 in 10.0 mi East 3.5 mph - N/A   Clear
6:55 AM 68.4 °F - 64.2 °F 87% 30.05 in 10.0 mi Calm Calm - N/A   Clear
7:15 AM 67.6 °F - 64.0 °F 88% 30.06 in 10.0 mi SSE 4.6 mph - N/A   Clear
7:35 AM 68.2 °F - 64.6 °F 88% 30.07 in 10.0 mi SSW 3.5 mph - N/A   Clear
7:55 AM 68.9 °F - 64.8 °F 87% 30.07 in 10.0 mi Calm Calm - N/A   Clear
8:15 AM 70.7 °F - 65.3 °F 83% 30.07 in 10.0 mi NW 3.5 mph - N/A   Clear
8:35 AM 73.0 °F - 65.7 °F 78% 30.07 in 10.0 mi NW 3.5 mph - N/A   Clear
8:55 AM 73.6 °F - 66.2 °F 78% 30.09 in 10.0 mi West 3.5 mph - N/A   Clear
9:15 AM 75.4 °F - 66.4 °F 73% 30.09 in 10.0 mi WSW 4.6 mph - N/A   Clear
9:35 AM 77.0 °F - 66.9 °F 71% 30.09 in 10.0 mi WSW 4.6 mph - N/A   Clear
9:55 AM 79.0 °F - 66.4 °F 65% 30.10 in 10.0 mi West 4.6 mph - N/A   Clear
10:15 AM 82.8 °F 84.5 °F 64.9 °F 55% 30.09 in 10.0 mi WSW 6.9 mph - N/A   Clear
10:35 AM 86.0 °F 87.1 °F 63.9 °F 47% 30.10 in 10.0 mi West 10.4 mph - N/A   Clear
10:55 AM 87.8 °F 87.9 °F 61.5 °F 41% 30.10 in 10.0 mi WNW 18.4 mph - N/A   Clear
11:15 AM 87.3 °F 88.0 °F 62.6 °F 44% 30.10 in 10.0 mi NW 16.1 mph 19.6 mph N/A   Clear
11:55 AM 89.2 °F 89.9 °F 62.8 °F 41% 30.10 in 10.0 mi WNW 16.1 mph 20.7 mph N/A   Clear
12:15 PM 89.6 °F 90.1 °F 62.4 °F 40% 30.10 in 10.0 mi WNW 16.1 mph 19.6 mph N/A   Clear
12:35 PM 91.0 °F 91.9 °F 63.1 °F 39% 30.10 in 10.0 mi NW 13.8 mph - N/A   Clear
1:15 PM 93.6 °F 93.8 °F 61.5 °F 34% 30.09 in 10.0 mi NW 11.5 mph 17.3 mph N/A   Clear
1:35 PM 93.6 °F 93.8 °F 61.2 °F 34% 30.07 in 10.0 mi WNW 10.4 mph 16.1 mph N/A   Clear
1:55 PM 95.2 °F 94.7 °F 59.2 °F 30% 30.07 in 10.0 mi NW 12.7 mph 19.6 mph N/A   Clear
2:15 PM 95.9 °F 96.1 °F 60.4 °F 31% 30.06 in 10.0 mi WNW 10.4 mph - N/A   Clear
2:35 PM 97.2 °F 97.2 °F 60.1 °F 29% 30.05 in 10.0 mi WNW 9.2 mph - N/A   Clear
2:55 PM 97.3 °F 97.5 °F 60.1 °F 29% 30.04 in 10.0 mi West 8.1 mph 16.1 mph N/A   Clear
3:15 PM 98.4 °F 98.7 °F 60.1 °F 28% 30.03 in 10.0 mi North 6.9 mph - N/A   Clear
3:35 PM 99.0 °F 100.0 °F 61.7 °F 29% 30.03 in 10.0 mi WNW 8.1 mph - N/A   Clear
3:55 PM 99.9 °F 101.5 °F 61.9 °F 29% 30.02 in 10.0 mi WNW 11.5 mph - N/A   Clear
4:15 PM 99.3 °F 100.6 °F 62.2 °F 29% 30.01 in 10.0 mi Calm Calm - N/A   Clear
4:35 PM 99.0 °F 100.5 °F 62.4 °F 30% 30.00 in 10.0 mi West 4.6 mph - N/A   Clear
4:55 PM 99.9 °F 101.5 °F 62.8 °F 29% 29.99 in 10.0 mi WNW 6.9 mph - N/A   Clear
5:15 PM 99.3 °F 100.6 °F 62.2 °F 29% 29.98 in 10.0 mi SW 4.6 mph - N/A Thunderstorm Clear
5:35 PM 98.4 °F 99.7 °F 62.4 °F 30% 29.99 in 10.0 mi SSW 10.4 mph - N/A Thunderstorm Thunderstorm
5:55 PM 95.5 °F 96.0 °F 61.0 °F 32% 30.00 in 10.0 mi WNW 12.7 mph 17.3 mph N/A Thunderstorm Clear
6:15 PM 87.4 °F 86.7 °F 59.2 °F 38% 30.01 in 10.0 mi NW 24.2 mph 34.5 mph N/A Thunderstorm Thunderstorm
6:35 PM 89.8 °F 88.1 °F 56.1 °F 32% 30.02 in 10.0 mi NNW 15.0 mph 24.2 mph N/A   Clear
6:55 PM 84.6 °F 86.6 °F 65.8 °F 53% 30.01 in 10.0 mi NNE 8.1 mph - N/A Rain Light Rain
7:15 PM 84.2 °F 85.2 °F 63.1 °F 49% 30.01 in 10.0 mi NE 11.5 mph - N/A   Scattered Clouds
7:35 PM 84.4 °F 85.6 °F 63.9 °F 50% 30.02 in 10.0 mi North 15.0 mph 19.6 mph N/A Thunderstorm Thunderstorm
7:55 PM 85.3 °F 85.0 °F 59.9 °F 42% 30.03 in 10.0 mi NNW 18.4 mph 25.3 mph N/A Thunderstorm Scattered Clouds
8:15 PM 88.5 °F - 51.4 °F 28% 30.03 in 10.0 mi NNW 24.2 mph 31.1 mph N/A Rain Light Rain
8:35 PM 81.5 °F 82.0 °F 60.3 °F 48% 30.02 in 10.0 mi WNW 16.1 mph - N/A Rain Light Rain
8:55 PM 84.9 °F 83.6 °F 55.4 °F 36% 30.02 in 10.0 mi West 13.8 mph - N/A   Clear
9:15 PM 86.0 °F 84.2 °F 53.4 °F 33% 30.05 in 10.0 mi Calm Calm - N/A Thunderstorm Clear
9:35 PM 83.8 °F 83.0 °F 56.3 °F 39% 30.05 in 10.0 mi SSE 4.6 mph - N/A   Clear
9:55 PM 84.4 °F 83.5 °F 56.7 °F 39% 30.05 in 10.0 mi Calm Calm - N/A   Clear
10:15 PM 83.3 °F 83.4 °F 60.1 °F 45% 30.05 in 10.0 mi Calm Calm - N/A   Clear
10:35 PM 81.7 °F 82.6 °F 62.1 °F 51% 30.05 in 10.0 mi SW 4.6 mph - N/A   Clear
10:55 PM 80.4 °F 81.8 °F 63.5 °F 56% 30.04 in 10.0 mi WSW 5.8 mph - N/A   Clear
11:15 PM 79.3 °F - 64.0 °F 59% 30.05 in 10.0 mi Calm Calm - N/A   Clear
11:35 PM 79.5 °F - 64.0 °F 59% 30.06 in 10.0 mi Calm Calm - N/A   Clear
11:55 PM 78.8 °F - 64.4 °F 61% 30.05 in 10.0 mi NNW 4.6 mph - N/A   Clear